N5DGC Weather Reports


time (UTC)temp
C
wind
direction
speed
KPH
gust
KPH
rain 1hr
cm
rain 24hr
cm
rain mn
cm
humidity
%
barometer
mb
20260906233616 36 302 1.6 4.8 0.00 0.00 0.00 16 1235.8
20260906233115 36 274 4.8 6.4 0.00 0.00 0.00 17 1235.5
20260906232612 36 279 0.0 3.2 0.00 0.00 0.00 17 1235.9
20260906232111 36 15 0.0 3.2 0.00 0.00 0.00 17 1235.8
20260906231606 36 331 0.0 3.2 0.00 0.00 0.00 17 1235.8
20260906231101 36 201 0.0 3.2 0.00 0.00 0.00 17 1235.8
20260906230600 36 202 3.2 4.8 0.00 0.00 0.00 17 1235.9
20260906230055 36 312 3.2 4.8 0.00 0.00 0.00 17 1235.8
20260906225554 36 343 0.0 4.8 0.00 0.00 0.00 17 1235.8
20260906225050 36 223 3.2 6.4 0.00 0.00 0.00 17 1235.9
20260906224546 37 204 9.7 12.9 0.00 0.00 0.00 16 1236.0
20260906224042 36 307 0.0 6.4 0.00 0.00 0.00 17 1235.8
20260906223538 36 326 8.0 8.0 0.00 0.00 0.00 16 1235.6
20260906223037 36 212 3.2 9.7 0.00 0.00 0.00 17 1236.0
20260906222537 37 172 3.2 12.9 0.00 0.00 0.00 17 1236.0
20260906222034 37 191 8.0 8.0 0.00 0.00 0.00 16 1235.9
20260906221533 37 208 0.0 3.2 0.00 0.00 0.00 16 1236.0
20260906221029 36 203 0.0 3.2 0.00 0.00 0.00 17 1236.1
20260906220528 36 74 0.0 12.9 0.00 0.00 0.00 16 1236.2
20260906220024 37 359 3.2 6.4 0.00 0.00 0.00 16 1236.3
20260906215523 37 295 0.0 6.4 0.00 0.00 0.00 16 1236.3
20260906215021 36 313 4.8 8.0 0.00 0.00 0.00 16 1236.3
20260906214520 37 344 3.2 4.8 0.00 0.00 0.00 15 1236.7
20260906214015 38 44 0.0 6.4 0.00 0.00 0.00 15 1236.7
20260906213515 37 237 3.2 4.8 0.00 0.00 0.00 16 1236.7
20260906213015 37 207 3.2 6.4 0.00 0.00 0.00 15 1236.7
20260906212502 36 23 1.6 9.7 0.00 0.00 0.00 16 1236.9
20260906211958 37 50 0.0 3.2 0.00 0.00 0.00 15 1236.9
20260906211452 37 275 0.0 4.8 0.00 0.00 0.00 15 1237.2
20260906210948 37 311 0.0 6.4 0.00 0.00 0.00 15 1237.2
20260906210443 37 224 0.0 3.2 0.00 0.00 0.00 15 1237.3
20260906205941 37 319 6.4 6.4 0.00 0.00 0.00 15 1237.4
20260906205438 37 308 0.0 8.0 0.00 0.00 0.00 15 1237.4
20260906204934 36 344 1.6 3.2 0.00 0.00 0.00 15 1237.5
20260906204433 36 26 3.2 6.4 0.00 0.00 0.00 15 1237.9
20260906203932 36 12 1.6 6.4 0.00 0.00 0.00 16 1237.9
20260906203428 36 338 0.0 8.0 0.00 0.00 0.00 15 1237.9
20260906202925 36 328 3.2 6.4 0.00 0.00 0.00 15 1238.1
20260906202425 36 331 0.0 6.4 0.00 0.00 0.00 16 1238.0
20260906201920 36 333 0.0 3.2 0.00 0.00 0.00 16 1238.2
20260906201414 36 333 0.0 3.2 0.00 0.00 0.00 15 1238.1
20260906200909 36 274 1.6 3.2 0.00 0.00 0.00 15 1238.1
20260906200406 35 11 1.6 4.8 0.00 0.00 0.00 16 1238.2
20260906195905 35 62 0.0 6.4 0.00 0.00 0.00 16 1238.0
20260906195402 36 209 3.2 6.4 0.00 0.00 0.00 15 1238.1
20260906194858 35 222 1.6 4.8 0.00 0.00 0.00 16 1238.4
20260906194354 36 253 3.2 3.2 0.00 0.00 0.00 15 1238.1
20260906193854 36 41 0.0 4.8 0.00 0.00 0.00 15 1238.3
20260906193349 36 304 0.0 3.2 0.00 0.00 0.00 15 1238.3
20260906192845 36 212 0.0 1.6 0.00 0.00 0.00 16 1238.7
20260906192339 35 243 0.0 4.8 0.00 0.00 0.00 15 1238.9
20260906191838 36 103 0.0 3.2 0.00 0.00 0.00 15 1238.8
20260906191333 35 312 0.0 3.2 0.00 0.00 0.00 16 1238.9
20260906190833 35 68 0.0 3.2 0.00 0.00 0.00 15 1238.7
20260906190332 35 89 0.0 3.2 0.00 0.00 0.00 16 1238.9
20260906185833 35 29 1.6 3.2 0.00 0.00 0.00 16 1239.1
20260906185332 35 212 0.0 4.8 0.00 0.00 0.00 16 1239.0
20260906184826 34 76 1.6 6.4 0.00 0.00 0.00 16 1239.1
20260906184321 33 29 1.6 3.2 0.00 0.00 0.00 17 1239.6
20260906183817 33 352 3.2 6.4 0.00 0.00 0.00 17 1239.6
20260906183313 32 349 1.6 6.4 0.00 0.00 0.00 17 1239.5
20260906182813 33 10 3.2 6.4 0.00 0.00 0.00 17 1239.7
20260906182309 33 25 1.6 3.2 0.00 0.00 0.00 17 1239.6
20260906181809 33 195 0.0 6.4 0.00 0.00 0.00 16 1239.6
20260906181305 33 4 6.4 6.4 0.00 0.00 0.00 17 1239.8
20260906180800 33 345 0.0 4.8 0.00 0.00 0.00 18 1240.2
20260906180255 32 309 0.0 3.2 0.00 0.00 0.00 18 1240.3
20260906175752 33 30 3.2 3.2 0.00 0.00 0.00 19 1240.4
20260906175249 33 358 0.0 4.8 0.00 0.00 0.00 21 1240.1
20260906174746 32 331 0.0 3.2 0.00 0.00 0.00 22 1240.3
20260906174246 32 343 0.0 3.2 0.00 0.00 0.00 22 1240.3
20260906173747 32 333 1.6 6.4 0.00 0.00 0.00 23 1240.3
20260906173243 32 25 0.0 3.2 0.00 0.00 0.00 23 1240.5
20260906172742 32 40 0.0 3.2 0.00 0.00 0.00 24 1240.4
20260906172238 31 49 3.2 3.2 0.00 0.00 0.00 24 1240.4
20260906171738 31 316 0.0 3.2 0.00 0.00 0.00 25 1240.4
20260906171233 30 5 0.0 4.8 0.00 0.00 0.00 25 1240.5
20260906170729 30 55 0.0 8.0 0.00 0.00 0.00 26 1240.4
20260906170224 30 53 3.2 3.2 0.00 0.00 0.00 26 1240.7
20260906165721 30 26 3.2 4.8 0.00 0.00 0.00 26 1240.7
20260906165221 30 20 3.2 4.8 0.00 0.00 0.00 26 1240.7
20260906164720 30 45 0.0 4.8 0.00 0.00 0.00 26 1240.9
20260906164216 30 39 3.2 6.4 0.00 0.00 0.00 26 1240.7
20260906163712 30 18 3.2 6.4 0.00 0.00 0.00 25 1240.9
20260906163208 29 56 1.6 3.2 0.00 0.00 0.00 27 1240.8
20260906162704 28 54 3.2 6.4 0.00 0.00 0.00 27 1240.8
20260906162204 28 26 6.4 6.4 0.00 0.00 0.00 27 1241.0
20260906161659 30 10 4.8 8.0 0.00 0.00 0.00 26 1240.9
20260906161158 30 22 0.0 6.4 0.00 0.00 0.00 25 1240.8
20260906160657 29 345 0.0 6.4 0.00 0.00 0.00 26 1240.9
20260906160156 29 6 3.2 4.8 0.00 0.00 0.00 26 1240.8
20260906155654 29 68 1.6 3.2 0.00 0.00 0.00 26 1240.9
20260906155149 28 54 0.0 4.8 0.00 0.00 0.00 26 1240.8
20260906154645 28 71 3.2 6.4 0.00 0.00 0.00 27 1240.8
20260906154144 28 129 0.0 4.8 0.00 0.00 0.00 27 1240.8
20260906153643 27 23 1.6 8.0 0.00 0.00 0.00 28 1240.9
20260906153138 27 20 1.6 6.4 0.00 0.00 0.00 28 1240.9
20260906152633 27 27 9.7 9.7 0.00 0.00 0.00 28 1240.7
20260906152132 27 28 3.2 6.4 0.00 0.00 0.00 28 1240.8
20260906151627 26 10 3.2 6.4 0.00 0.00 0.00 29 1240.8
20260906151124 27 4 1.6 9.7 0.00 0.00 0.00 29 1240.8
20260906150619 26 29 3.2 4.8 0.00 0.00 0.00 29 1240.9
20260906150114 25 18 3.2 4.8 0.00 0.00 0.00 30 1240.9
20260906145613 25 24 3.2 6.4 0.00 0.00 0.00 31 1240.8
20260906145108 24 47 4.8 4.8 0.00 0.00 0.00 32 1240.7
20260906144602 23 318 0.0 3.2 0.00 0.00 0.00 34 1240.8
20260906144057 23 8 3.2 3.2 0.00 0.00 0.00 33 1240.9
20260906143552 23 322 0.0 0.0 0.00 0.00 0.00 33 1240.7
20260906143049 23 37 0.0 1.6 0.00 0.00 0.00 33 1240.5
20260906142548 23 343 0.0 0.0 0.00 0.00 0.00 34 1240.4
20260906142044 22 21 0.0 0.0 0.00 0.00 0.00 34 1240.7
20260906141543 22 166 0.0 3.2 0.00 0.00 0.00 34 1240.8
20260906141038 22 63 0.0 1.6 0.00 0.00 0.00 34 1240.4
20260906140537 23 87 0.0 3.2 0.00 0.00 0.00 33 1240.4
20260906140037 22 46 3.2 4.8 0.00 0.00 0.00 32 1240.2
20260906135534 22 42 3.2 4.8 0.00 0.00 0.00 33 1240.3
20260906135030 22 48 3.2 6.4 0.00 0.00 0.00 34 1240.3
20260906134525 21 38 3.2 4.8 0.00 0.00 0.00 34 1240.2
20260906134020 21 326 3.2 4.8 0.00 0.00 0.00 35 1240.1
20260906133516 20 31 1.6 4.8 0.00 0.00 0.00 35 1240.1
20260906133011 20 339 0.0 3.2 0.00 0.00 0.00 36 1240.1
20260906132506 20 26 0.0 4.8 0.00 0.00 0.00 36 1239.8
20260906132001 20 76 0.0 3.2 0.00 0.00 0.00 37 1240.0
20260906131457 20 72 1.6 3.2 0.00 0.00 0.00 36 1240.0
20260906130952 20 26 0.0 3.2 0.00 0.00 0.00 36 1240.2
20260906130452 20 55 1.6 3.2 0.00 0.00 0.00 37 1239.8
20260906125952 20 69 3.2 6.4 0.00 0.00 0.00 36 1240.0
20260906125449 20 359 3.2 6.4 0.00 0.00 0.00 36 1240.1
20260906124949 20 328 0.0 3.2 0.00 0.00 0.00 37 1239.8
20260906124445 19 324 0.0 1.6 0.00 0.00 0.00 38 1239.7
20260906123945 19 62 1.6 1.6 0.00 0.00 0.00 38 1239.8
20260906123445 19 63 1.6 3.2 0.00 0.00 0.00 38 1240.0
20260906122944 19 50 3.2 3.2 0.00 0.00 0.00 38 1239.8
20260906122439 20 69 0.0 1.6 0.00 0.00 0.00 39 1239.8
20260906121936 20 95 0.0 1.6 0.00 0.00 0.00 38 1239.7
20260906121432 20 89 0.0 3.2 0.00 0.00 0.00 38 1240.0
20260906120928 20 119 0.0 3.2 0.00 0.00 0.00 37 1239.8
20260906120423 20 58 1.6 3.2 0.00 0.00 0.00 37 1239.7
20260906115919 20 0 0.0 3.2 0.00 0.00 0.00 39 1239.6
20260906115415 20 76 0.0 1.6 0.00 0.00 0.00 40 1239.6
20260906114914 20 50 0.0 1.6 0.00 0.00 0.00 39 1239.8
20260906114409 21 79 1.6 1.6 0.00 0.00 0.00 39 1239.8
20260906113905 21 50 0.0 1.6 0.00 0.00 0.00 36 1239.7
20260906113403 21 37 0.0 1.6 0.00 0.00 0.00 37 1239.7
20260906112859 21 30 3.2 3.2 0.00 0.00 0.00 37 1239.8
20260906112355 21 82 1.6 1.6 0.00 0.00 0.00 38 1239.5
20260906111855 21 103 0.0 1.6 0.00 0.00 0.00 38 1239.8
20260906111355 21 62 0.0 0.0 0.00 0.00 0.00 38 1239.7
20260906110850 21 342 0.0 0.0 0.00 0.00 0.00 37 1239.8
20260906110346 21 62 0.0 0.0 0.00 0.00 0.00 37 1239.4
20260906105844 21 69 0.0 1.6 0.00 0.00 0.00 36 1239.7
20260906105340 21 38 0.0 0.0 0.00 0.00 0.00 37 1239.6
20260906104836 21 37 0.0 0.0 0.00 0.00 0.00 37 1239.7
20260906104334 21 55 0.0 0.0 0.00 0.00 0.00 37 1239.7
20260906103833 22 66 0.0 0.0 0.00 0.00 0.00 37 1239.6
20260906103332 22 66 0.0 0.0 0.00 0.00 0.00 37 1239.6
20260906102828 22 71 0.0 1.6 0.00 0.00 0.00 36 1239.4
20260906102327 22 38 0.0 0.0 0.00 0.00 0.00 35 1239.4
20260906101822 22 0 0.0 1.6 0.00 0.00 0.00 34 1239.5
20260906101317 22 347 0.0 1.6 0.00 0.00 0.00 34 1239.3
20260906100813 22 50 0.0 1.6 0.00 0.00 0.00 33 1239.4
20260906100312 22 37 1.6 3.2 0.00 0.00 0.00 33 1239.4
20260906095807 22 50 0.0 1.6 0.00 0.00 0.00 34 1239.4
20260906095305 23 62 0.0 3.2 0.00 0.00 0.00 33 1239.4
20260906094801 23 345 0.0 3.2 0.00 0.00 0.00 32 1239.3
20260906094256 23 309 0.0 3.2 0.00 0.00 0.00 32 1239.1
20260906093753 23 324 3.2 3.2 0.00 0.00 0.00 32 1239.0
20260906093248 23 322 3.2 4.8 0.00 0.00 0.00 32 1239.1
20260906092743 23 336 1.6 4.8 0.00 0.00 0.00 32 1239.3
20260906092238 23 321 3.2 4.8 0.00 0.00 0.00 32 1239.0
20260906091734 23 326 6.4 6.4 0.00 0.00 0.00 32 1238.9
20260906091230 23 329 4.8 4.8 0.00 0.00 0.00 31 1239.0
20260906090726 23 301 6.4 8.0 0.00 0.00 0.00 31 1239.0
20260906090225 23 3 3.2 8.0 0.00 0.00 0.00 31 1239.1
20260906085724 23 1 3.2 8.0 0.00 0.00 0.00 31 1239.0
20260906085223 23 319 1.6 4.8 0.00 0.00 0.00 31 1239.0
20260906084719 23 23 3.2 6.4 0.00 0.00 0.00 32 1239.0
20260906084218 23 19 1.6 3.2 0.00 0.00 0.00 32 1238.9
20260906083714 23 297 0.0 4.8 0.00 0.00 0.00 32 1239.1
20260906083209 23 333 0.0 3.2 0.00 0.00 0.00 32 1239.0
20260906082704 24 314 3.2 6.4 0.00 0.00 0.00 32 1239.3
20260906082159 24 332 3.2 6.4 0.00 0.00 0.00 32 1239.1
20260906081655 23 359 3.2 4.8 0.00 0.00 0.00 32 1239.5
20260906081150 23 349 3.2 3.2 0.00 0.00 0.00 33 1239.4
20260906080646 23 6 0.0 3.2 0.00 0.00 0.00 33 1239.4
20260906080142 23 331 3.2 3.2 0.00 0.00 0.00 33 1239.5
20260906075642 23 342 1.6 3.2 0.00 0.00 0.00 34 1239.5
20260906075136 23 342 1.6 3.2 0.00 0.00 0.00 34 1239.7
20260906074632 23 333 0.0 1.6 0.00 0.00 0.00 35 1239.7
20260906074131 23 333 0.0 1.6 0.00 0.00 0.00 35 1239.5
20260906073626 23 15 0.0 1.6 0.00 0.00 0.00 35 1239.7
20260906073121 23 50 0.0 0.0 0.00 0.00 0.00 35 1239.5
20260906072616 23 57 0.0 1.6 0.00 0.00 0.00 34 1239.7
20260906072113 23 307 3.2 3.2 0.00 0.00 0.00 35 1239.7
20260906071609 23 333 0.0 1.6 0.00 0.00 0.00 35 1239.7
20260906071109 23 36 3.2 3.2 0.00 0.00 0.00 35 1239.8
20260906070606 23 343 0.0 0.0 0.00 0.00 0.00 34 1239.6
20260906070101 23 75 0.0 3.2 0.00 0.00 0.00 33 1239.7
20260906065600 24 333 0.0 0.0 0.00 0.00 0.00 32 1239.6
20260906065056 25 32 0.0 3.2 0.00 0.00 0.00 32 1239.6
20260906064552 24 33 4.8 6.4 0.00 0.00 0.00 32 1239.6
20260906064046 23 309 3.2 4.8 0.00 0.00 0.00 33 1239.6
20260906063541 23 351 1.6 3.2 0.00 0.00 0.00 34 1239.6
20260906063038 23 138 1.6 1.6 0.00 0.00 0.00 35 1239.6
20260906062532 23 142 0.0 1.6 0.00 0.00 0.00 34 1239.4
20260906062027 23 147 0.0 3.2 0.00 0.00 0.00 34 1239.3
20260906061523 23 37 0.0 1.6 0.00 0.00 0.00 34 1239.1
20260906061022 24 60 0.0 0.0 0.00 0.00 0.00 33 1239.3
20260906060519 24 25 0.0 1.6 0.00 0.00 0.00 32 1239.3
20260906060016 25 324 3.2 3.2 0.00 0.00 0.00 31 1239.1
20260906055511 25 32 1.6 8.0 0.00 0.00 0.00 31 1239.1
20260906055007 25 292 6.4 6.4 0.00 0.00 0.00 31 1238.9
20260906054507 25 329 6.4 9.7 0.00 0.00 0.00 30 1238.9
20260906054002 25 325 8.0 12.9 0.00 0.00 0.00 30 1238.9
20260906053459 25 31 3.2 9.7 0.00 0.00 0.00 30 1238.9
20260906052954 25 325 3.2 9.7 0.00 0.00 0.00 30 1239.0
20260906052450 25 310 6.4 8.0 0.00 0.00 0.00 30 1239.0
20260906051947 25 325 4.8 11.3 0.00 0.00 0.00 30 1239.0
20260906051442 25 35 0.0 9.7 0.00 0.00 0.00 30 1238.8
20260906050937 25 310 4.8 9.7 0.00 0.00 0.00 30 1238.9
20260906050437 25 314 6.4 11.3 0.00 0.00 0.00 30 1239.1
20260906045936 25 359 3.2 8.0 0.00 0.00 0.00 30 1238.9
20260906045435 25 334 3.2 8.0 0.00 0.00 0.00 31 1238.7
20260906044932 25 309 4.8 6.4 0.00 0.00 0.00 31 1238.7
20260906044432 25 322 4.8 8.0 0.00 0.00 0.00 31 1238.8
20260906043927 25 351 3.2 8.0 0.00 0.00 0.00 31 1238.8
20260906043423 25 320 3.2 3.2 0.00 0.00 0.00 31 1238.9
20260906042919 25 327 1.6 4.8 0.00 0.00 0.00 31 1238.9
20260906042418 25 318 3.2 6.4 0.00 0.00 0.00 31 1238.7
20260906041913 25 337 4.8 6.4 0.00 0.00 0.00 31 1239.0
20260906041409 25 351 0.0 4.8 0.00 0.00 0.00 30 1238.9
20260906040908 25 296 0.0 6.4 0.00 0.00 0.00 30 1239.0
20260906040404 25 344 1.6 4.8 0.00 0.00 0.00 30 1238.9
20260906035900 25 331 3.2 6.4 0.00 0.00 0.00 30 1239.0
20260906035355 25 1 3.2 4.8 0.00 0.00 0.00 30 1238.9
20260906034850 25 319 1.6 4.8 0.00 0.00 0.00 30 1239.0
20260906034350 25 39 0.0 3.2 0.00 0.00 0.00 30 1238.9
20260906033846 25 43 3.2 3.2 0.00 0.00 0.00 30 1238.8
20260906033345 25 346 1.6 3.2 0.00 0.00 0.00 30 1238.9
20260906032841 25 37 0.0 1.6 0.00 0.00 0.00 30 1238.6
20260906032337 26 297 0.0 3.2 0.00 0.00 0.00 30 1238.7
20260906031832 26 45 0.0 1.6 0.00 0.00 0.00 29 1238.6
20260906031327 26 341 1.6 3.2 0.00 0.00 0.00 29 1238.6
20260906030827 26 37 0.0 6.4 0.00 0.00 0.00 28 1238.4
20260906030323 27 331 0.0 4.8 0.00 0.00 0.00 28 1238.2
20260906025823 27 345 1.6 4.8 0.00 0.00 0.00 28 1238.4
20260906025317 27 329 1.6 6.4 0.00 0.00 0.00 28 1238.2
20260906024816 27 17 3.2 6.4 0.00 0.00 0.00 28 1238.1
20260906024315 27 298 1.6 6.4 0.00 0.00 0.00 27 1238.1
20260906023811 27 346 1.6 6.4 0.00 0.00 0.00 27 1238.2
20260906023306 28 312 3.2 6.4 0.00 0.00 0.00 27 1238.1
20260906022802 28 326 0.0 9.7 0.00 0.00 0.00 27 1238.0
20260906022257 28 337 4.8 6.4 0.00 0.00 0.00 27 1238.1
20260906021753 28 6 1.6 9.7 0.00 0.00 0.00 27 1238.1
20260906021251 28 320 8.0 9.7 0.00 0.00 0.00 27 1237.9
20260906020746 28 321 3.2 6.4 0.00 0.00 0.00 28 1238.0
20260906020246 28 27 0.0 4.8 0.00 0.00 0.00 27 1237.6
20260906015741 28 333 1.6 6.4 0.00 0.00 0.00 28 1237.7
20260906015240 29 342 0.0 6.4 0.00 0.00 0.00 27 1237.6
20260906014740 29 352 1.6 3.2 0.00 0.00 0.00 28 1237.6
20260906014235 29 318 0.0 3.2 0.00 0.00 0.00 28 1237.7
20260906013731 29 315 3.2 9.7 0.00 0.00 0.00 29 1237.6
20260906013231 29 343 0.0 1.6 0.00 0.00 0.00 30 1237.6
20260906012726 30 37 0.0 1.6 0.00 0.00 0.00 30 1237.6
20260906012221 30 235 0.0 0.0 0.00 0.00 0.00 29 1237.6
20260906011717 30 50 0.0 0.0 0.00 0.00 0.00 29 1237.5
20260906011211 30 10 0.0 1.6 0.00 0.00 0.00 28 1237.6
20260906010707 30 69 0.0 3.2 0.00 0.00 0.00 28 1237.6
20260906010203 30 44 0.0 1.6 0.00 0.00 0.00 28 1237.4
20260906005703 31 10 0.0 3.2 0.00 0.00 0.00 27 1237.5
20260906005202 31 331 1.6 4.8 0.00 0.00 0.00 27 1237.5
20260906004701 31 287 1.6 4.8 0.00 0.00 0.00 27 1237.5
20260906004156 31 353 3.2 4.8 0.00 0.00 0.00 27 1237.7
20260906003652 31 318 6.4 9.7 0.00 0.00 0.00 26 1237.7
20260906003148 31 347 0.0 3.2 0.00 0.00 0.00 26 1237.9
20260906002647 31 330 1.6 8.0 0.00 0.00 0.00 26 1237.7
20260906002142 32 94 3.2 4.8 0.00 0.00 0.00 26 1237.7
20260906001638 32 259 4.8 11.3 0.00 0.00 0.00 26 1237.6
20260906001137 32 346 4.8 8.0 0.00 0.00 0.00 25 1237.7
20260906000633 32 312 8.0 9.7 0.00 0.00 0.00 25 1237.6
20260906000128 32 326 4.8 6.4 0.00 0.00 0.00 24 1237.6
20260905235627 32 348 3.2 11.3 0.00 0.00 0.00 25 1237.6
20260905235123 33 335 4.8 12.9 0.00 0.00 0.00 24 1237.5
20260905234618 34 348 3.2 4.8 0.00 0.00 0.00 23 1237.5
20260905234114 34 258 1.6 12.9 0.00 0.00 0.00 23 1237.6